Tracking 29892 objects as of 21-Nov-2024
HD Live streaming from Space Station
objects crossing your sky now

STARLINK-6350

Track STARLINK-6350 now!
10-day predictions
STARLINK-6350 is classified as:


NORAD ID: 57226
Int'l Code: 2023-094J
Perigee: 565.2 km
Apogee: 567.2 km
Inclination: 43.0 °
Period: 95.8 minutes
Semi major axis: 6937 km
RCS: Unknown
Launch date: July 7, 2023
Source: United States (US)
Launch site: AIR FORCE WESTERN TEST RANGE (AFWTR)
Your satellite tracking list
Your tracking list is empty




NASA's NSSDC Master Catalog

Two Line Element Set (TLE):
1 57226U 23094J   24325.79779240 -.00000238  00000-0 -25670-5 0  9991
2 57226  43.0032  85.3838 0001407 267.3936  92.6745 15.02538369 75837
Source of the keplerian elements: AFSPC